Temp
-4 -4 -4 -5 -5 -5 -5 -5 -5 -5 -5 -5 -5 -5 -5 -5 -5 -5 -5 -5 -5 -5 -5 -5 -5 -5 -5 -5 -5 -5 -5 -5 -5 -5 -5 -5 -5 -5 -5 -5 -5 -5 -5 -5 -5 -5 -5 -5 -5 -5 -5 -5 -5 -5 -5 -5 -5 -5 -5 -5 -5 -5 -5 -5 -6 -6 -6 -6 -6
-4 -4 -4 -4 -5 -5 -5 -5 -5 -5 -5 -5 -5 -5 -5 -5 -5 -5 -5 -5 -5 -5 -5 -5 -5 -5 -5 -5 -5 -5 -5 -5 -5 -5 -5 -5 -5 -5 -5 -5 -5 -5 -5 -5 -5 -6 -6 -6 -6 -5 -5 -5 -5 -5 -5 -5 -5 -5 -5 -5 -5 -5 -5 -5 -5 -5 -6 -6 -6
-4 -4 -4 -5 -5 -5 -5 -5 -5 -5 -5 -5 -5 -5 -5 -5 -5 -5 -5 -5 -5 -5 -5 -5 -5 -5 -5 -5 -5 -5 -5 -5 -5 -5 -5 -5 -5 -5 -5 -5 -5 -5 -5 -5 -6 -6 -6 -6 -6 -5 -5 -5 -5 -5 -5 -5 -5 -6 -6 -5 -5 -5 -5 -5 -5 -5 -5 -6 -6
-4 -4 -4 -5 -5 -5 -5 -5 -5 -5 -5 -5 -5 -5 -5 -5 -5 -5 -5 -5 -5 -5 -5 -5 -5 -5 -5 -5 -5 -5 -5 -5 -5 -5 -5 -5 -5 -5 -5 -5 -5 -5 -5 -6 -6 -6 -6 -6 -6 -5 -5 -5 -5 -5 -5 -6 -6 -6 -6 -6 -5 -5 -5 -5 -5 -5 -5 -5 -5
-4 -4 -5 -5 -5 -5 -5 -5 -5 -6 -6 -6 -6 -6 -6 -6 -5 -5 -5 -5 -5 -5 -5 -5 -5 -5 -5 -5 -5 -5 -5 -5 -5 -5 -5 -5 -5 -5 -5 -5 -5 -5 -6 -6 -6 -6 -6 -6 -6 -5 -5 -5 -5 -6 -6 -6 -6 -6 -6 -6 -6 -6 -5 -5 -5 -5 -5 -5 -5
-4 -4 -5 -5 -5 -5 -5 -6 -6 -6 -6 -6 -6 -6 -6 -6 -5 -5 -5 -5 -5 -5 -5 -5 -5 -5 -5 -5 -5 -5 -5 -5 -5 -6 -6 -6 -6 -6 -6 -5 -6 -6 -6 -6 -6 -6 -6 -6 -6 -6 -6 -6 -6 -6 -6 -6 -6 -6 -6 -6 -6 -6 -6 -6 -6 -6 -6 -6 -6
-4 -5 -5 -5 -5 -5 -5 -6 -6 -6 -6 -6 -6 -6 -6 -6 -6 -5 -5 -5 -5 -5 -5 -5 -5 -5 -5 -5 -5 -5 -5 -6 -6 -6 -6 -6 -6 -6 -6 -6 -6 -6 -6 -6 -6 -6 -6 -6 -6 -6 -6 -6 -6 -6 -6 -6 -7 -7 -7 -6 -6 -6 -6 -6 -6 -6 -6 -6 -6
-5 -5 -5 -5 -5 -5 -6 -6 -6 -6 -6 -6 -6 -6 -6 -6 -6 -5 -5 -5 -5 -5 -5 -5 -5 -5 -5 -5 -5 -5 -6 -6 -6 -6 -6 -6 -6 -6 -6 -6 -6 -6 -6 -6 -6 -6 -6 -6 -6 -6 -6 -6 -6 -6 -6 -6 -7 -7 -7 -7 -7 -7 -7 -7 -7 -7 -7 -7 -6
-5 -5 -5 -5 -5 -5 -6 -6 -6 -6 -6 -6 -6 -6 -6 -6 -6 -5 -5 -5 -5 -5 -5 -5 -5 -5 -5 -5 -6 -6 -6 -6 -6 -6 -6 -6 -6 -6 -6 -6 -6 -6 -6 -6 -6 -6 -6 -6 -6 -6 -6 -6 -6 -6 -6 -7 -7 -7 -7 -7 -7 -7 -7 -7 -7 -7 -7 -7 -7
-5 -5 -5 -5 -5 -5 -6 -6 -6 -6 -6 -6 -6 -6 -6 -6 -6 -5 -5 -5 -5 -5 -5 -5 -5 -5 -6 -6 -6 -6 -6 -6 -6 -6 -6 -6 -6 -6 -6 -6 -6 -6 -6 -6 -6 -6 -6 -6 -6 -6 -6 -6 -6 -6 -6 -7 -7 -7 -7 -7 -7 -7 -7 -7 -7 -7 -7 -7 -7
-5 -5 -5 -5 -5 -6 -6 -6 -6 -6 -6 -6 -6 -6 -6 -6 -6 -5 -5 -5 -5 -5 -5 -6 -6 -6 -6 -6 -6 -6 -6 -6 -6 -6 -6 -6 -6 -6 -6 -6 -6 -6 -6 -6 -6 -6 -6 -6 -6 -6 -6 -6 -6 -6 -6 -7 -7 -7 -7 -7 -7 -7 -7 -7 -7 -7 -7 -7 -7
-5 -5 -5 -5 -5 -6 -6 -6 -6 -6 -6 -6 -6 -6 -6 -6 -6 -6 -6 -6 -6 -6 -6 -6 -6 -6 -6 -6 -6 -6 -6 -6 -6 -6 -6 -6 -6 -6 -6 -6 -6 -6 -6 -6 -6 -6 -6 -6 -6 -6 -6 -6 -6 -6 -6 -6 -6 -7 -7 -7 -7 -7 -7 -7 -7 -7 -8 -8 -8
-5 -5 -5 -5 -5 -6 -6 -6 -6 -6 -6 -6 -6 -6 -6 -6 -6 -6 -6 -6 -6 -6 -6 -6 -6 -6 -6 -6 -6 -6 -6 -6 -6 -6 -6 -6 -6 -6 -6 -6 -6 -6 -6 -6 -6 -6 -6 -6 -6 -6 -6 -6 -6 -6 -6 -6 -6 -6 -7 -7 -7 -7 -7 -7 -7 -7 -7 -8 -8
-5 -5 -5 -5 -5 -6 -6 -6 -6 -6 -6 -6 -6 -6 -6 -6 -6 -6 -6 -6 -6 -6 -6 -6 -6 -6 -6 -6 -6 -6 -6 -6 -6 -6 -6 -6 -6 -6 -6 -6 -6 -6 -6 -6 -6 -6 -6 -6 -6 -6 -6 -6 -6 -6 -6 -6 -6 -6 -6 -6 -7 -7 -7 -7 -7 -7 -7 -8 -8
-5 -5 -5 -5 -5 -6 -6 -6 -6 -6 -6 -6 -6 -6 -6 -6 -6 -6 -6 -6 -6 -6 -6 -6 -6 -6 -6 -6 -6 -6 -6 -6 -6 -6 -6 -6 -6 -6 -6 -6 -6 -6 -6 -6 -6 -6 -6 -6 -6 -6 -6 -6 -6 -6 -5 -5 -5 -6 -6 -6 -6 -6 -7 -7 -7 -7 -7 -7 -8
-5 -5 -5 -5 -5 -6 -6 -6 -6 -6 -6 -6 -6 -6 -6 -6 -6 -6 -6 -6 -6 -6 -6 -6 -6 -6 -6 -6 -6 -6 -6 -6 -6 -6 -6 -6 -6 -6 -6 -6 -6 -6 -6 -6 -6 -6 -6 -6 -6 -6 -6 -6 -6 -6 -5 -5 -5 -5 -5 -6 -6 -6 -6 -7 -7 -7 -7 -7 -7
-5 -5 -5 -5 -6 -6 -6 -6 -6 -6 -6 -6 -6 -6 -6 -6 -6 -6 -6 -6 -6 -6 -6 -6 -6 -6 -6 -6 -6 -6 -6 -6 -6 -6 -6 -6 -6 -6 -6 -6 -6 -6 -6 -6 -6 -6 -6 -6 -5 -5 -5 -6 -6 -6 -5 -5 -5 -5 -5 -6 -6 -6 -6 -6 -6 -6 -6 -6 -7
-5 -5 -5 -5 -6 -6 -6 -6 -6 -6 -6 -6 -6 -6 -6 -6 -6 -6 -6 -6 -6 -7 -7 -7 -7 -6 -6 -6 -6 -6 -6 -6 -6 -6 -6 -6 -6 -6 -6 -6 -6 -6 -6 -6 -6 -6 -6 -6 -5 -5 -5 -5 -5 -5 -5 -5 -5 -5 -5 -5 -6 -6 -6 -6 -6 -6 -6 -6 -6
-5 -5 -5 -6 -6 -6 -6 -6 -6 -6 -6 -6 -6 -6 -6 -6 -6 -6 -6 -6 -6 -7 -7 -7 -7 -7 -6 -6 -6 -6 -6 -6 -6 -6 -6 -6 -6 -6 -6 -6 -6 -6 -6 -6 -6 -6 -6 -6 -5 -5 -5 -5 -5 -5 -5 -5 -5 -5 -5 -5 -5 -5 -5 -5 -6 -6 -6 -6 -6
-5 -5 -6 -6 -6 -6 -6 -6 -6 -6 -6 -6 -6 -6 -6 -6 -6 -6 -6 -6 -6 -6 -7 -7 -7 -7 -6 -6 -6 -6 -6 -6 -6 -6 -6 -6 -6 -6 -6 -6 -6 -6 -6 -6 -6 -6 -6 -5 -5 -5 -5 -5 -5 -5 -5 -5 -5 -5 -5 -5 -5 -5 -5 -5 -5 -5 -6 -6 -6
-5 -5 -6 -6 -6 -6 -6 -6 -6 -6 -6 -6 -6 -6 -6 -6 -6 -6 -6 -6 -6 -6 -7 -7 -7 -7 -6 -6 -6 -6 -6 -6 -6 -6 -6 -6 -6 -6 -6 -6 -6 -6 -6 -6 -6 -6 -5 -5 -5 -5 -5 -5 -5 -5 -6 -6 -6 -5 -5 -5 -5 -5 -5 -5 -5 -5 -5 -6 -6
-5 -6 -6 -6 -6 -6 -6 -6 -6 -6 -6 -6 -6 -7 -7 -7 -7 -6 -6 -6 -6 -7 -7 -7 -7 -7 -7 -6 -6 -6 -6 -6 -6 -6 -6 -6 -6 -6 -6 -6 -6 -6 -6 -6 -6 -5 -5 -5 -5 -5 -5 -5 -5 -5 -6 -6 -6 -6 -6 -5 -5 -5 -5 -5 -5 -5 -5 -5 -6
-6 -6 -6 -6 -6 -6 -6 -6 -6 -6 -6 -6 -6 -7 -7 -7 -7 -7 -7 -6 -7 -7 -7 -7 -7 -7 -6 -6 -6 -6 -6 -6 -6 -6 -6 -6 -6 -6 -6 -6 -6 -6 -6 -6 -5 -5 -5 -5 -5 -4 -4 -4 -5 -5 -6 -6 -6 -6 -6 -6 -6 -6 -5 -5 -5 -5 -5 -5 -6
-6 -6 -6 -6 -6 -6 -6 -6 -6 -6 -6 -6 -6 -6 -7 -7 -7 -7 -7 -6 -6 -6 -6 -6 -6 -6 -6 -6 -6 -6 -6 -6 -6 -6 -6 -5 -5 -5 -5 -5 -5 -5 -5 -5 -5 -5 -5 -5 -4 -4 -4 -4 -4 -5 -5 -5 -5 -6 -6 -6 -6 -6 -6 -6 -5 -5 -5 -5 -5
-6 -6 -6 -6 -6 -6 -6 -6 -6 -6 -6 -6 -6 -6 -6 -7 -7 -6 -6 -6 -6 -6 -6 -6 -6 -6 -6 -6 -6 -6 -6 -6 -6 -5 -5 -5 -5 -5 -5 -5 -5 -5 -5 -5 -5 -5 -5 -4 -4 -4 -3 -4 -4 -4 -4 -5 -5 -5 -5 -6 -6 -6 -6 -6 -5 -5 -5 -5 -5
-6 -6 -6 -6 -6 -6 -6 -6 -6 -6 -6 -6 -6 -6 -6 -6 -6 -6 -6 -6 -6 -6 -6 -6 -6 -6 -6 -6 -6 -6 -6 -6 -5 -5 -5 -5 -5 -5 -5 -5 -5 -5 -5 -5 -5 -5 -4 -4 -4 -3 -3 -3 -4 -4 -4 -4 -4 -5 -5 -5 -6 -6 -6 -6 -5 -5 -5 -5 -5
-6 -6 -6 -6 -6 -6 -6 -6 -6 -6 -6 -6 -6 -6 -6 -6 -6 -6 -6 -6 -6 -6 -6 -6 -6 -6 -6 -6 -6 -6 -6 -5 -5 -5 -5 -5 -5 -5 -5 -5 -5 -5 -5 -5 -5 -5 -4 -4 -3 -3 -3 -3 -3 -4 -4 -4 -4 -4 -5 -5 -6 -6 -5 -5 -5 -5 -5 -5 -5
-6 -6 -6 -6 -6 -6 -6 -6 -6 -6 -6 -6 -6 -6 -6 -6 -6 -6 -6 -6 -6 -6 -6 -6 -6 -6 -6 -6 -6 -6 -6 -5 -5 -5 -5 -5 -5 -5 -5 -5 -5 -5 -5 -5 -5 -4 -4 -4 -3 -3 -3 -3 -3 -3 -4 -4 -4 -4 -5 -5 -5 -5 -5 -5 -5 -5 -5 -5 -5
-6 -6 -6 -6 -6 -6 -6 -6 -6 -6 -6 -6 -6 -6 -6 -6 -6 -6 -6 -6 -6 -6 -6 -6 -6 -6 -6 -6 -6 -6 -6 -6 -5 -5 -5 -5 -5 -5 -5 -5 -5 -5 -5 -5 -5 -4 -4 -4 -3 -3 -3 -3 -3 -3 -3 -4 -4 -4 -5 -5 -5 -5 -5 -5 -5 -5 -5 -5 -5
-5 -5 -5 -5 -5 -5 -6 -6 -6 -6 -6 -6 -6 -6 -6 -6 -6 -6 -6 -6 -6 -6 -6 -6 -6 -6 -6 -6 -6 -6 -6 -6 -5 -5 -5 -5 -5 -5 -5 -5 -5 -5 -5 -5 -5 -4 -4 -4 -3 -3 -3 -3 -3 -3 -3 -3 -4 -4 -5 -5 -5 -5 -5 -5 -5 -5 -5 -5 -5
-5 -5 -5 -5 -5 -5 -6 -6 -6 -6 -6 -6 -6 -6 -6 -6 -6 -6 -6 -6 -6 -6 -6 -6 -6 -6 -6 -6 -6 -6 -6 -5 -5 -5 -5 -5 -5 -5 -5 -5 -5 -5 -5 -5 -5 -4 -4 -4 -3 -3 -3 -3 -3 -3 -3 -3 -4 -4 -4 -4 -5 -5 -5 -5 -5 -5 -5 -5 -5
-5 -5 -5 -5 -5 -5 -5 -6 -6 -6 -6 -6 -6 -6 -6 -6 -6 -6 -6 -6 -6 -6 -6 -6 -6 -6 -6 -6 -6 -5 -5 -5 -5 -5 -5 -5 -5 -5 -5 -5 -5 -5 -5 -5 -5 -4 -4 -4 -3 -3 -3 -3 -3 -3 -3 -3 -4 -4 -4 -4 -4 -4 -4 -4 -5 -5 -5 -5 -5
-5 -5 -5 -5 -5 -5 -5 -6 -6 -6 -6 -6 -6 -6 -6 -6 -6 -6 -5 -5 -5 -5 -5 -5 -5 -5 -5 -5 -5 -5 -5 -5 -5 -5 -5 -5 -5 -5 -5 -5 -5 -5 -5 -5 -4 -4 -4 -3 -3 -3 -3 -3 -3 -3 -3 -4 -4 -4 -4 -4 -4 -4 -4 -4 -4 -4 -5 -5 -5
-5 -5 -5 -5 -5 -5 -5 -6 -6 -6 -6 -6 -6 -6 -6 -6 -6 -5 -5 -5 -5 -5 -5 -5 -5 -5 -5 -5 -5 -5 -5 -5 -5 -5 -5 -5 -5 -5 -5 -5 -5 -5 -5 -5 -4 -4 -4 -3 -3 -3 -3 -3 -3 -3 -3 -4 -4 -4 -4 -4 -4 -4 -4 -4 -4 -4 -4 -4 -5
-5 -5 -5 -5 -5 -5 -6 -6 -6 -6 -6 -6 -6 -6 -6 -6 -5 -5 -5 -5 -5 -5 -5 -5 -5 -5 -5 -5 -5 -5 -5 -5 -5 -5 -5 -5 -5 -5 -5 -5 -5 -5 -5 -5 -4 -4 -4 -3 -3 -3 -3 -3 -3 -3 -3 -4 -4 -4 -4 -4 -4 -4 -4 -4 -4 -4 -4 -4 -5
-5 -5 -5 -5 -5 -5 -6 -6 -6 -6 -6 -6 -6 -6 -6 -5 -5 -5 -5 -5 -5 -5 -5 -5 -5 -5 -5 -5 -5 -5 -5 -5 -5 -5 -5 -5 -5 -5 -5 -5 -5 -5 -5 -4 -4 -4 -4 -3 -3 -3 -3 -3 -3 -3 -4 -4 -4 -4 -4 -4 -4 -4 -4 -4 -4 -4 -4 -4 -5
-5 -5 -5 -5 -5 -6 -6 -6 -6 -6 -6 -6 -6 -6 -6 -5 -5 -5 -5 -5 -5 -5 -5 -5 -5 -5 -5 -5 -5 -5 -5 -5 -5 -5 -5 -5 -5 -5 -5 -5 -5 -5 -5 -4 -4 -4 -4 -3 -3 -3 -3 -3 -3 -3 -4 -4 -4 -4 -4 -4 -4 -4 -4 -4 -4 -4 -4 -4 -5
-5 -5 -5 -5 -6 -6 -6 -6 -6 -6 -6 -6 -6 -6 -5 -5 -5 -5 -5 -5 -5 -5 -5 -5 -5 -5 -5 -5 -5 -5 -5 -5 -5 -5 -5 -5 -5 -5 -5 -5 -5 -4 -4 -4 -4 -4 -3 -3 -3 -3 -3 -3 -3 -3 -4 -4 -4 -4 -4 -4 -4 -4 -4 -4 -4 -4 -4 -5 -5
-5 -5 -5 -5 -6 -6 -6 -6 -6 -6 -6 -6 -5 -5 -5 -5 -5 -5 -5 -5 -5 -5 -5 -5 -5 -5 -5 -5 -5 -5 -5 -5 -5 -5 -5 -5 -5 -5 -5 -4 -4 -4 -4 -4 -4 -4 -3 -3 -3 -3 -3 -3 -3 -3 -3 -4 -4 -4 -4 -4 -4 -4 -4 -4 -4 -4 -4 -4 -5
-5 -5 -5 -5 -6 -6 -6 -6 -6 -6 -5 -5 -5 -5 -5 -5 -5 -5 -5 -5 -5 -5 -5 -5 -5 -5 -5 -5 -5 -5 -5 -5 -5 -5 -5 -5 -5 -4 -4 -4 -4 -4 -4 -4 -4 -4 -3 -3 -3 -3 -3 -3 -3 -3 -3 -3 -3 -3 -4 -4 -4 -4 -4 -4 -4 -4 -4 -4 -4
-5 -5 -5 -5 -6 -6 -6 -6 -6 -5 -5 -5 -5 -5 -5 -5 -5 -5 -5 -5 -5 -5 -5 -5 -5 -5 -5 -5 -5 -5 -5 -5 -5 -5 -5 -4 -4 -4 -4 -4 -4 -4 -4 -4 -4 -4 -3 -3 -3 -2 -2 -2 -2 -3 -3 -3 -3 -3 -3 -3 -3 -3 -4 -3 -3 -4 -4 -4 -4
Height
869 869 868 868 868 868 868 867 867 867 867 866 866 865 865 865 864 864 863 863 862 861 861 860 859 858 858 857 856 855 854 853 853 852 851 850 849 847 846 845 843 842 840 839 837 835 834 832 830 828 826 824 822 820 819 817 815 813 810 808 806 803 801 799 796 794 792 791 790
868 868 867 867 867 867 867 866 866 866 866 865 865 865 864 864 863 863 862 862 861 861 860 859 858 858 857 856 855 854 853 852 851 851 850 849 848 846 845 844 843 841 839 838 836 835 833 831 830 828 826 824 822 820 818 817 815 813 810 808 806 804 801 799 796 794 792 790 789
867 867 866 866 866 866 865 865 865 865 865 864 864 864 863 863 862 862 861 861 860 860 859 858 857 857 856 855 854 853 852 851 850 850 849 848 847 845 844 843 842 840 839 837 836 834 833 831 829 827 826 824 822 820 818 816 814 813 811 808 806 804 802 799 797 794 792 790 789
866 866 865 865 865 865 864 864 864 864 864 864 863 863 862 862 861 861 860 860 859 859 858 857 856 856 855 854 853 852 851 851 850 849 848 847 846 844 843 842 841 839 838 836 835 833 832 830 829 827 825 824 822 820 818 816 814 813 811 809 807 804 802 800 798 795 793 791 789
865 864 864 864 864 864 863 863 863 863 863 862 862 862 861 861 860 860 859 859 858 858 857 856 856 855 854 853 852 851 850 849 849 848 847 846 845 844 842 841 840 839 837 835 834 833 831 829 828 826 825 823 821 820 818 816 814 813 811 809 807 805 803 801 798 796 794 792 790
864 864 863 863 863 863 862 862 862 861 861 861 861 860 860 859 859 859 858 858 857 857 856 855 855 854 853 852 851 850 849 849 848 847 846 845 844 843 841 840 839 838 836 835 833 832 830 829 827 826 824 823 821 819 818 816 814 812 810 809 807 805 803 801 799 796 794 792 790
862 862 862 862 862 861 861 861 860 860 860 860 860 859 859 859 858 858 857 857 856 855 855 854 854 853 852 851 850 849 848 847 846 846 845 844 843 842 840 839 838 837 835 834 833 831 829 828 827 825 824 822 820 819 817 815 814 812 810 808 807 805 803 801 799 797 794 792 790
861 861 861 861 860 860 860 860 859 859 859 859 859 858 858 857 857 857 856 856 855 854 854 853 853 852 851 850 849 848 847 846 845 844 844 843 842 841 839 839 837 836 835 833 832 830 829 827 826 824 823 821 820 818 816 815 813 812 810 808 806 804 803 801 799 797 794 792 790
859 859 859 859 859 859 859 859 859 858 858 858 857 857 857 856 856 855 855 854 854 854 853 852 851 851 850 849 848 847 846 845 844 844 843 842 841 840 839 838 836 835 834 833 831 829 828 826 825 824 822 821 819 818 816 814 813 811 809 808 806 804 802 801 799 797 794 792 790
858 859 859 858 858 858 858 858 857 857 857 857 856 856 856 855 855 854 854 854 853 852 852 851 850 850 849 848 847 846 845 844 844 843 842 841 840 839 838 837 835 834 833 832 830 829 827 826 824 823 821 820 819 817 815 814 812 810 809 807 806 804 802 800 798 796 794 792 790
857 857 857 857 857 857 857 857 856 856 856 855 855 855 855 854 854 854 853 852 852 851 850 850 849 849 848 847 846 845 844 843 842 842 841 840 839 838 837 836 834 834 832 831 829 828 827 825 823 822 820 819 817 816 814 813 811 810 808 807 805 803 801 799 798 796 794 792 790
856 856 856 856 856 856 856 855 855 855 855 854 854 854 854 853 853 852 852 851 851 850 849 849 848 847 847 846 845 844 843 842 841 840 839 839 838 837 836 835 834 833 831 830 829 827 826 824 823 821 819 818 816 815 814 812 810 809 807 806 804 803 801 799 797 796 794 792 790
855 855 855 855 855 855 854 854 854 854 854 854 853 853 853 852 852 851 851 850 849 849 848 848 847 846 845 844 844 843 842 841 840 839 839 838 837 836 835 834 833 832 830 829 828 827 825 824 822 821 819 817 816 814 813 812 810 808 807 805 804 802 800 799 797 795 794 792 790
854 854 854 854 854 854 854 853 853 853 853 852 852 852 852 851 851 850 849 849 848 848 847 846 846 845 844 844 843 842 841 840 839 838 837 836 835 835 834 833 831 830 829 828 827 826 824 823 821 820 819 817 815 814 813 811 809 808 806 804 803 801 800 798 796 795 793 791 790
852 852 852 853 853 853 852 852 852 852 851 851 851 851 850 850 849 849 848 848 847 846 846 845 844 844 843 842 841 841 840 839 838 837 836 835 834 834 833 831 830 829 828 827 826 825 824 822 821 819 818 816 815 813 812 811 809 807 806 804 803 801 799 798 796 794 793 791 790
851 851 851 851 851 851 851 851 851 850 850 850 850 849 849 849 848 848 847 846 846 845 844 844 843 842 842 841 840 839 839 838 837 836 835 834 833 832 831 830 829 828 827 826 825 824 822 821 820 819 817 816 814 813 811 810 809 807 805 804 802 800 799 797 796 794 793 791 790
850 850 850 850 850 850 850 850 849 849 849 849 849 848 848 848 847 846 846 845 844 844 843 842 842 841 840 839 839 839 838 837 836 835 834 833 832 831 830 829 828 827 826 825 824 822 821 820 819 818 816 815 814 812 811 809 808 806 805 803 801 800 798 797 796 794 793 791 789
849 849 849 849 849 849 849 849 849 848 848 848 847 847 847 846 846 845 844 844 844 843 842 841 840 840 839 838 838 837 837 836 834 834 833 832 831 830 829 828 827 826 825 824 823 821 820 819 818 817 815 814 813 812 810 809 808 806 804 802 800 799 798 796 795 794 792 791 789
847 848 848 848 848 848 848 848 847 847 847 846 846 846 845 845 844 844 843 843 842 841 841 840 839 839 838 837 837 836 835 834 834 832 831 830 829 829 828 827 826 824 824 823 821 820 819 818 816 815 814 813 812 811 809 808 807 805 804 802 800 799 797 796 794 793 792 790 789
846 846 846 847 847 847 847 846 846 846 845 845 845 845 844 844 844 843 842 841 841 840 839 839 838 837 837 836 835 834 834 833 832 831 830 829 828 827 826 825 824 823 822 821 820 819 818 816 815 814 813 811 810 809 809 807 806 804 803 801 799 798 796 795 794 792 791 790 789
845 845 845 845 845 845 845 845 845 845 844 844 844 844 843 843 842 841 841 840 839 839 838 838 837 836 835 835 834 833 832 832 831 830 829 828 827 826 825 824 823 822 821 820 819 818 816 815 814 812 811 809 809 808 807 806 805 803 802 800 799 797 795 794 793 792 790 789 788
843 844 844 844 844 844 844 844 844 844 843 843 843 842 842 841 841 840 839 839 838 838 837 836 836 835 834 834 833 832 831 830 829 829 828 827 826 825 824 823 822 821 820 819 817 816 815 814 812 810 809 808 807 806 805 805 804 802 800 799 797 796 794 793 792 791 790 789 787
842 842 843 843 843 843 843 843 843 842 842 841 841 841 840 840 839 839 838 838 837 836 836 835 834 834 833 832 832 831 830 829 828 827 826 826 825 824 823 822 821 819 818 817 816 815 814 812 810 809 808 806 805 804 804 803 802 801 799 798 796 794 793 792 791 790 789 788 787
841 841 841 841 841 841 841 841 841 841 840 840 840 839 839 839 838 838 837 836 836 835 834 834 833 832 832 831 830 829 829 828 827 826 825 824 824 823 821 820 819 818 817 816 815 814 813 811 809 808 806 805 804 803 802 801 800 799 798 796 794 793 792 791 790 789 788 787 786
839 839 840 840 840 840 840 840 840 839 839 839 839 838 838 837 837 836 836 835 834 834 833 833 832 831 830 830 829 828 828 827 826 825 824 823 822 821 820 819 818 817 816 815 814 813 812 810 809 807 805 804 802 801 800 799 798 797 796 794 793 792 791 790 789 788 787 786 785
838 838 838 839 839 839 839 839 839 838 838 838 837 837 837 836 836 835 835 834 833 833 832 831 831 830 829 829 828 827 826 826 825 824 823 822 821 820 819 818 817 815 814 814 813 812 810 809 808 806 804 803 801 800 799 797 796 795 794 793 792 791 790 789 788 787 786 785 784
836 837 837 837 837 837 837 837 837 837 837 836 836 836 835 835 835 834 834 833 832 831 831 830 829 829 828 828 827 826 825 824 824 823 822 821 819 819 817 816 815 814 813 812 811 810 809 808 806 805 804 802 800 799 797 796 794 794 793 792 791 790 789 788 786 785 784 783 782
835 835 835 836 836 836 836 836 836 836 835 835 835 834 834 834 834 833 833 832 831 830 829 829 828 828 827 826 826 825 824 824 823 822 821 819 819 817 816 815 814 813 812 811 810 809 808 806 805 804 802 801 799 798 796 794 793 792 791 790 789 788 787 786 785 784 783 781 780
834 834 834 834 834 834 834 835 834 834 834 834 834 833 833 833 833 832 831 831 830 829 829 828 827 827 826 825 825 824 823 822 821 820 819 818 817 816 815 814 813 812 811 810 809 808 806 805 804 802 801 800 798 797 795 794 792 791 790 789 788 787 785 784 783 782 781 779 778
832 832 833 833 833 833 833 833 833 833 833 833 832 832 832 832 832 831 830 830 829 828 828 827 826 826 825 824 824 823 822 821 820 819 818 817 816 815 814 812 811 810 809 809 808 806 805 804 802 801 799 798 797 796 794 793 791 790 789 787 786 785 784 782 781 780 779 777 775
830 831 831 831 832 832 832 832 832 832 832 831 831 831 831 831 830 830 829 829 828 827 827 826 825 825 824 823 823 822 821 820 819 818 817 816 815 814 812 811 810 809 808 807 806 805 804 802 801 799 798 797 795 794 793 792 791 789 788 786 785 783 782 780 779 778 776 774 772
829 829 830 830 830 830 830 831 831 831 830 830 830 830 830 829 829 829 829 828 827 826 826 825 824 824 823 822 821 821 820 819 818 817 816 815 814 812 811 810 809 807 807 806 805 804 802 801 799 798 797 795 794 793 791 790 789 788 786 785 783 782 780 778 776 775 773 771 769
828 828 828 829 829 829 829 829 829 829 829 829 829 829 829 829 828 828 827 827 826 826 825 824 824 823 822 821 820 819 819 818 817 816 815 814 812 811 810 808 807 806 805 804 803 802 801 799 798 797 795 794 793 791 790 789 787 786 784 783 781 779 777 775 774 772 770 768 766
826 827 827 827 827 828 828 828 828 828 828 828 828 828 828 827 827 827 826 826 825 825 824 823 823 822 821 820 819 819 818 817 815 814 814 812 811 810 809 807 806 805 804 803 802 801 799 798 796 795 794 792 791 789 788 787 785 784 782 780 778 776 774 772 770 769 767 765 763
824 825 825 826 826 826 826 827 827 827 827 827 827 826 826 826 826 825 825 825 824 824 823 822 822 821 820 819 819 818 817 816 814 814 812 811 810 809 807 806 804 804 803 802 801 799 798 797 795 794 792 791 789 788 786 785 783 781 779 777 775 773 771 769 768 766 764 762 761
823 824 824 824 824 825 825 825 825 825 826 825 825 825 825 825 825 824 824 824 823 823 822 821 820 820 819 818 818 817 816 815 814 813 811 810 809 808 806 804 803 802 802 801 799 798 797 795 794 792 791 789 788 786 785 783 781 779 776 774 772 770 769 767 766 764 763 760 758
821 822 822 823 823 823 824 824 824 824 824 824 824 824 824 824 824 823 823 823 822 821 821 820 819 819 818 817 816 816 815 814 813 812 810 809 808 807 805 804 802 801 800 799 798 797 795 794 793 791 789 788 786 784 783 781 779 776 774 772 769 768 767 766 765 763 761 759 756
820 820 821 821 822 822 822 823 823 823 823 823 823 823 823 823 822 822 822 822 821 820 819 819 818 818 817 816 815 814 814 813 812 811 810 809 807 806 805 803 801 800 799 798 797 796 794 793 792 790 788 786 784 783 780 778 776 774 771 769 767 766 765 765 764 762 759 757 755
819 819 819 820 820 820 821 821 821 821 821 821 821 821 821 821 821 821 820 820 820 819 819 818 817 816 816 815 814 814 813 812 811 810 809 808 807 805 804 803 801 799 798 797 796 795 793 792 790 789 787 785 783 781 778 776 773 770 768 766 765 765 764 764 762 760 758 756 755
817 818 818 818 819 819 819 819 820 820 820 820 820 820 820 820 820 819 819 819 819 818 817 817 816 815 815 814 814 812 811 810 809 809 808 807 806 805 804 802 800 799 797 796 795 794 792 791 789 787 785 783 781 779 776 773 770 768 766 765 765 764 764 762 761 759 758 756 755
816 816 817 817 817 818 818 818 818 818 819 819 819 819 819 819 819 818 818 818 817 817 816 816 815 814 814 813 813 811 810 809 808 807 807 806 805 804 803 801 800 798 797 795 794 793 791 790 788 786 784 781 779 777 774 771 769 767 766 765 765 764 763 761 760 759 758 756 755
Wind_Speed
7 7 8 8 8 9 9 10 10 10 10 11 11 12 12 13 14 15 15 15 15 16 16 17 17 18 19 19 20 21 21 21 21 22 22 23 23 24 24 25 25 26 26 26 26 26 26 26 27 26 25 25 24 24 24 24 25 26 27 28 27 27 26 26 26 26 26 24 22
7 7 8 8 8 9 9 10 10 10 11 11 12 12 13 14 14 15 15 15 15 16 16 17 18 18 19 20 20 21 21 21 21 22 22 22 23 23 24 24 25 26 26 26 26 26 26 26 27 26 24 23 23 24 25 25 26 27 28 28 28 27 26 26 26 27 27 25 22
7 8 8 8 9 9 9 10 10 11 11 12 12 13 13 14 15 15 15 16 16 16 17 17 18 18 19 20 20 20 21 21 21 21 22 22 23 23 24 24 25 26 26 26 26 26 26 26 25 24 23 23 23 23 24 25 26 27 27 27 27 27 26 25 26 28 28 26 23
8 8 8 8 9 9 9 10 11 11 12 12 13 13 14 14 14 15 15 16 16 16 17 18 18 19 19 19 20 20 21 21 21 21 21 21 22 23 23 24 25 25 26 26 26 26 26 25 24 23 22 23 23 23 23 25 26 27 26 25 25 25 25 26 27 27 27 27 25
8 8 8 9 9 9 10 10 11 11 12 12 13 13 14 14 14 15 15 16 16 17 18 18 18 19 19 19 20 20 21 21 21 20 21 21 22 23 23 24 24 25 26 26 26 26 25 25 23 22 22 23 22 22 23 24 25 26 25 24 24 23 24 25 27 27 27 27 27
8 9 9 9 9 10 10 11 11 11 12 12 13 13 14 14 15 15 16 17 18 18 18 18 18 18 18 19 20 21 21 21 21 20 20 21 21 22 23 24 24 24 25 25 26 25 25 24 22 22 22 22 22 23 23 24 25 25 25 24 23 22 23 24 26 27 27 27 28
9 9 9 9 9 10 10 10 11 11 11 12 13 14 14 15 15 16 17 18 18 19 18 18 18 18 18 19 20 21 21 21 21 20 20 20 21 22 23 23 24 24 25 25 25 25 25 24 22 21 22 22 22 23 24 24 24 25 25 25 23 22 22 23 25 26 27 28 28
9 9 9 9 9 9 10 10 10 11 12 12 13 14 15 15 16 17 17 18 18 18 18 18 18 18 19 20 21 21 22 21 21 20 20 20 21 22 23 23 24 24 24 24 24 25 24 24 22 22 22 22 23 23 24 24 24 24 24 24 23 23 23 23 25 26 27 28 28
9 9 8 8 9 9 10 10 10 11 12 13 14 14 15 15 16 16 17 17 18 17 18 18 18 19 19 20 21 21 21 21 21 20 20 20 21 22 23 23 23 24 24 24 24 24 24 24 23 23 23 23 24 24 25 24 23 23 23 22 22 22 23 24 25 26 27 27 27
9 8 8 9 9 9 10 10 10 11 12 13 14 14 15 15 15 16 16 17 17 17 18 18 18 19 19 20 21 21 21 21 21 20 21 21 21 22 22 23 23 23 23 24 24 24 24 24 24 24 25 25 26 26 26 24 22 22 22 21 21 22 23 24 25 26 26 26 27
9 9 9 9 9 10 10 10 11 11 12 13 13 14 14 15 15 15 16 16 17 17 18 18 18 19 19 20 20 21 21 20 21 21 21 21 21 22 22 23 23 23 23 23 23 23 24 24 25 25 26 26 26 27 26 25 23 22 22 21 22 22 24 25 26 26 25 25 26
9 9 9 9 9 10 10 11 11 12 12 13 13 14 14 14 15 15 15 16 17 17 18 18 18 18 19 20 20 20 20 20 21 21 21 21 21 21 22 22 22 23 23 23 23 23 24 24 24 24 25 25 26 26 26 24 22 22 22 22 22 23 24 26 26 25 25 24 25
9 9 9 9 9 10 10 11 11 12 12 13 13 13 14 14 14 15 15 16 16 17 17 17 18 18 18 19 19 20 20 21 21 21 21 21 21 21 22 22 22 23 23 23 23 23 24 24 24 24 23 24 25 26 25 23 21 21 21 22 22 23 24 25 26 25 25 24 24
9 9 9 9 9 10 10 11 11 12 12 12 13 13 13 14 14 15 15 16 16 17 17 18 18 18 18 19 19 20 20 21 21 21 21 21 21 21 22 22 23 23 23 23 23 23 24 24 24 23 23 23 24 24 23 21 20 19 20 20 21 22 24 24 25 25 25 24 23
9 9 9 9 10 10 10 11 11 12 12 12 13 13 14 14 15 15 15 16 16 17 17 18 18 18 19 19 19 20 20 20 20 21 21 21 21 21 22 23 23 23 23 23 23 23 24 24 24 23 22 22 22 22 21 20 18 18 18 19 20 21 22 23 24 24 24 24 23
10 9 9 9 10 10 11 11 11 12 12 13 13 14 14 15 15 16 16 16 17 17 18 18 18 19 19 19 19 20 20 20 20 20 20 21 21 22 22 23 23 23 24 24 24 23 24 24 24 24 22 21 21 21 20 19 17 17 17 17 18 20 21 22 22 23 23 23 22
10 10 9 10 10 11 11 11 12 12 13 13 14 14 15 16 16 16 16 17 17 18 18 19 19 19 19 20 20 20 20 20 20 20 21 21 21 22 22 23 23 24 24 24 24 24 24 24 24 24 23 21 20 20 19 18 17 16 16 17 18 19 20 21 21 22 22 22 22
10 10 10 10 10 11 11 12 12 13 13 14 14 15 15 16 16 17 17 18 18 18 19 19 19 19 19 20 20 20 20 20 20 21 21 21 21 22 22 23 23 23 24 24 24 24 24 24 25 25 23 22 20 19 19 18 17 17 16 16 17 18 19 19 20 20 21 21 22
11 10 10 10 11 11 11 12 12 13 13 14 14 15 16 16 17 17 18 18 18 19 19 19 20 19 19 20 20 20 20 20 21 21 21 21 21 21 22 23 23 23 24 24 24 24 24 25 26 26 25 23 21 19 19 19 18 18 17 17 17 17 18 18 19 19 19 20 21
11 11 10 10 11 11 12 12 13 13 13 14 14 15 16 16 17 17 18 18 19 19 19 19 19 19 20 20 20 20 20 20 21 21 21 21 21 22 22 23 23 23 24 24 24 24 24 25 26 27 26 24 21 19 18 19 19 18 18 17 17 17 17 17 18 18 18 18 19
11 11 11 11 11 11 12 12 12 13 13 14 15 15 16 16 17 17 17 18 18 19 19 19 19 19 20 20 20 21 21 21 21 21 21 21 22 22 22 23 23 24 24 24 24 24 25 26 27 28 27 25 22 19 17 17 18 18 18 18 18 17 17 17 17 17 17 18 18
12 11 11 11 11 12 12 12 12 12 13 14 15 15 16 16 16 17 17 18 18 18 19 19 19 19 20 20 21 21 21 21 21 21 21 22 22 22 22 23 23 24 24 24 24 25 25 26 27 27 27 25 21 18 16 15 16 17 17 18 18 18 18 18 18 18 18 18 18
12 11 11 11 12 12 12 12 12 12 13 14 15 15 15 15 16 16 17 17 18 18 19 19 19 20 20 20 21 21 21 21 21 21 21 22 22 22 23 23 23 24 24 24 25 25 25 26 26 26 26 24 20 17 15 15 15 16 17 17 18 19 20 19 19 19 18 18 18
12 12 12 13 13 13 12 12 12 13 14 14 14 14 14 15 15 16 16 17 18 18 19 19 19 20 20 21 21 21 21 21 22 22 22 22 22 22 23 23 23 24 24 24 24 24 24 24 25 25 24 22 20 18 17 16 16 16 16 17 19 20 21 21 20 20 20 19 19
13 13 14 14 13 13 13 12 12 13 13 13 13 13 13 14 15 16 17 17 18 18 19 19 19 20 20 21 21 21 21 21 21 22 22 22 22 23 23 23 24 24 24 25 24 23 22 22 23 23 23 22 20 20 20 20 19 19 18 18 19 20 22 22 22 22 21 20 20
15 15 14 14 13 13 12 12 12 12 13 12 12 12 12 13 14 15 17 18 18 18 19 19 19 20 20 20 20 20 20 20 21 22 22 23 23 24 24 24 24 24 25 25 24 23 23 23 23 23 23 23 22 21 21 22 23 22 21 19 19 20 22 23 23 23 23 22 22
15 15 14 13 13 12 12 12 12 12 12 11 11 11 12 13 14 15 17 17 18 18 19 19 19 19 19 20 20 20 20 21 21 22 23 23 24 24 24 24 24 25 25 25 24 23 23 23 23 23 23 23 23 23 23 23 24 23 22 21 20 20 21 23 23 24 24 24 24
16 15 14 13 13 12 12 11 11 12 11 10 10 11 12 13 14 15 16 17 18 18 19 19 19 19 19 19 20 20 21 21 22 23 23 24 24 24 24 25 25 25 25 24 24 24 24 23 23 23 23 23 23 23 24 24 23 23 22 22 21 22 22 23 24 25 25 26 26
15 15 14 13 13 12 11 11 11 11 10 10 10 10 12 13 14 15 16 17 17 18 18 19 19 18 19 19 20 21 21 22 23 23 23 24 24 24 25 25 25 25 25 24 24 24 24 24 23 23 23 23 23 24 24 24 23 23 22 23 23 23 24 24 25 25 26 27 28
16 15 14 14 13 12 11 11 11 10 10 9 9 10 12 13 14 15 16 17 17 18 18 18 18 18 19 20 20 21 22 22 23 23 23 24 24 24 25 25 26 26 26 25 25 24 24 24 24 24 24 24 24 24 24 24 23 22 22 23 24 25 25 26 26 27 27 28 29
16 15 14 13 13 12 11 11 10 9 9 9 10 11 12 13 14 15 16 16 17 17 17 18 18 18 19 20 20 21 21 22 22 22 23 23 24 24 25 25 26 26 26 25 24 24 24 24 24 24 24 24 24 24 24 24 23 23 23 24 25 26 27 27 27 28 28 29 30
16 15 14 14 13 12 11 10 10 9 9 9 10 11 12 14 14 15 16 16 17 17 17 18 18 18 19 19 20 20 21 22 22 22 23 23 24 24 25 26 26 26 26 24 24 24 24 24 24 24 24 24 24 24 24 24 24 24 25 26 27 28 28 29 29 29 29 30 31
16 15 15 14 14 13 11 10 10 9 9 10 10 12 13 14 15 15 16 16 16 17 17 17 18 18 19 19 20 20 21 21 22 22 23 23 24 25 25 26 26 26 25 24 24 24 24 24 24 24 24 24 24 24 24 24 24 25 26 26 27 28 29 29 30 30 31 32 32
17 16 15 15 14 13 12 10 9 9 9 10 11 12 13 14 15 15 16 16 16 16 17 17 18 18 19 19 20 20 21 22 22 23 23 24 24 25 26 26 27 26 24 24 24 25 25 24 24 24 24 23 23 23 24 24 25 25 26 27 28 29 29 30 31 32 33 33 33
17 16 16 15 14 13 12 10 10 10 10 11 12 13 13 14 15 15 15 16 16 16 17 18 18 19 19 19 20 20 21 22 23 23 24 24 25 25 26 27 27 26 25 25 25 25 25 25 24 24 24 23 23 23 24 24 25 26 27 28 29 30 30 31 32 33 34 35 35
18 17 16 15 14 13 12 11 10 11 11 12 13 14 14 14 14 15 15 15 16 17 17 18 18 19 19 20 20 21 21 22 23 23 24 24 25 25 26 27 28 27 26 25 25 25 25 25 25 24 24 24 24 24 24 25 25 26 27 28 29 30 31 31 32 33 35 36 36
18 17 16 15 14 13 12 11 11 12 13 13 14 14 14 14 14 15 15 15 16 17 18 18 19 19 20 20 21 21 22 22 22 23 24 24 25 25 26 27 28 28 27 26 26 26 26 25 25 25 25 25 25 25 25 25 26 27 28 29 30 30 30 30 31 32 34 36 36
18 17 16 15 14 13 13 12 13 13 14 14 14 14 14 14 14 15 15 15 16 17 18 19 19 19 20 20 21 21 22 22 22 23 23 24 24 25 25 26 27 28 28 27 26 26 26 26 26 26 26 27 27 27 26 26 27 27 28 29 29 29 28 28 28 30 32 34 34
18 17 16 15 14 14 14 14 14 14 14 14 14 14 14 14 15 15 15 15 16 17 18 19 19 20 20 20 21 21 22 22 22 23 23 24 24 24 24 25 26 27 28 27 27 27 27 27 27 27 28 28 28 28 27 27 27 28 29 28 27 26 25 25 26 27 29 30 30
17 16 16 15 15 15 15 15 15 15 14 14 14 14 14 14 15 15 16 16 16 17 17 18 19 20 20 20 21 21 22 23 23 23 23 24 24 23 23 23 25 27 28 28 27 27 27 27 27 28 29 30 30 29 28 27 27 28 27 26 23 21 20 22 23 23 24 24 24
17 16 16 15 15 16 16 16 16 15 14 14 14 14 15 15 15 16 16 16 16 17 17 18 19 20 20 20 21 22 23 24 24 24 24 23 23 23 23 23 25 26 27 27 27 26 26 27 28 28 29 30 30 29 28 28 27 25 24 21 20 18 19 20 20 19 19 21 23
Wind_Direction
251 255 260 265 268 271 273 274 275 275 276 278 280 282 285 287 289 290 292 294 295 297 300 302 305 307 309 310 312 313 314 316 317 319 319 320 321 322 323 323 324 325 326 326 327 328 329 330 330 328 326 325 326 327 329 330 332 333 332 330 327 323 319 316 312 310 306 300 293
247 252 256 260 263 267 271 274 275 275 276 277 280 282 285 286 288 289 291 292 294 297 299 302 304 306 308 310 311 312 313 315 316 317 318 319 320 321 322 323 324 325 325 326 327 328 329 331 330 328 326 326 327 328 329 330 332 333 333 332 330 327 324 321 318 317 315 310 304
246 250 255 259 262 266 269 272 273 274 275 277 279 281 283 285 286 288 290 292 294 297 299 302 304 306 308 309 310 311 313 314 316 317 317 318 318 320 321 323 324 325 325 326 327 328 329 331 331 329 328 328 328 328 328 329 331 332 332 332 332 331 329 326 325 324 322 318 314
245 249 254 259 262 265 268 270 272 273 275 276 279 281 283 284 286 287 290 292 294 296 299 301 304 306 307 309 310 311 312 313 315 315 316 316 317 318 320 322 323 324 325 326 327 328 330 332 331 329 329 329 329 328 328 328 329 330 331 332 333 334 333 332 331 330 329 327 325
244 248 253 258 262 266 269 271 272 274 276 278 280 282 283 284 286 288 290 292 294 296 298 301 302 304 306 307 309 310 311 313 314 314 315 315 316 317 319 321 323 324 325 326 327 328 330 332 331 330 329 329 328 328 327 327 328 328 329 331 332 333 334 335 336 335 334 334 334
241 246 252 258 264 268 271 273 275 277 279 280 281 282 283 285 286 288 290 292 293 296 298 299 301 302 304 306 308 309 311 312 313 313 314 314 315 316 318 320 322 323 325 326 327 329 331 332 330 329 330 330 329 327 327 327 327 327 328 329 330 331 333 335 336 336 336 338 339
239 245 252 260 266 271 274 277 279 281 282 282 282 282 283 285 287 288 290 291 294 296 297 298 299 301 303 305 307 309 310 311 312 312 313 313 314 315 317 318 320 322 324 326 328 330 331 332 329 328 329 330 329 328 327 328 327 327 327 328 328 329 331 332 334 335 336 338 340
242 250 257 264 269 274 277 280 281 282 282 282 282 283 285 286 288 289 291 292 294 295 296 297 298 300 302 304 306 307 309 310 311 311 312 313 313 314 315 317 319 321 324 326 328 330 331 332 329 327 328 329 329 328 328 327 327 327 326 327 327 328 329 330 333 335 336 337 339
247 254 262 267 271 275 278 280 281 281 282 282 283 285 286 288 289 291 292 293 293 294 296 296 298 300 301 303 304 306 307 309 310 310 311 312 312 313 314 315 318 320 322 325 327 330 331 331 329 328 327 328 327 327 327 327 327 327 326 326 326 327 328 329 332 334 336 338 338
248 254 260 265 269 273 276 278 279 280 282 284 285 287 288 289 290 290 291 292 294 294 295 296 298 299 301 302 303 305 306 307 308 309 310 311 311 312 313 314 316 318 321 323 326 328 330 330 329 329 329 328 327 327 327 328 327 327 327 326 326 326 327 329 332 335 337 338 338
246 252 258 263 268 272 275 277 279 282 284 285 287 288 289 289 290 290 291 293 294 294 295 296 298 299 300 301 302 304 305 306 307 308 309 309 310 310 311 312 314 316 319 321 324 326 328 328 329 330 330 330 329 327 328 329 329 329 328 327 327 327 329 331 334 336 336 337 337
245 251 257 263 268 272 275 277 280 283 284 285 287 288 289 290 291 292 293 293 294 294 295 296 297 298 299 300 302 303 304 305 306 307 308 308 309 309 309 310 312 314 317 319 321 323 325 326 327 328 329 330 329 328 328 331 333 333 333 332 331 330 330 333 336 337 337 337 337
243 249 255 261 267 271 274 276 279 281 283 284 286 287 289 290 291 292 293 293 294 294 295 296 296 297 298 299 301 302 303 304 305 306 307 307 307 307 307 308 310 312 315 317 319 320 322 324 325 326 327 327 327 327 328 332 336 337 337 336 334 333 333 334 337 339 339 339 338
241 248 254 261 266 269 271 273 276 279 281 283 284 286 288 289 290 292 293 293 294 295 295 296 296 297 298 299 300 301 303 304 305 306 306 306 306 306 306 307 309 311 313 315 317 318 319 321 323 323 323 323 324 325 328 333 337 339 339 337 335 334 335 336 339 341 342 341 340
239 246 252 258 263 265 268 271 274 277 280 281 283 285 287 289 290 291 293 293 294 294 295 296 296 297 298 299 300 302 303 304 304 305 305 305 304 304 305 306 308 310 312 313 315 316 317 319 321 321 320 319 320 322 326 331 336 338 339 338 337 336 336 337 339 342 343 343 341
238 244 249 255 259 263 266 269 272 275 278 280 283 285 287 289 291 292 292 293 293 294 295 296 296 297 298 299 300 302 303 303 304 304 304 304 304 304 304 305 307 308 310 312 313 314 315 316 319 319 318 316 316 319 323 328 332 336 338 338 338 338 337 337 339 341 344 344 342
238 243 247 253 258 262 265 269 272 275 278 281 284 287 289 290 291 292 293 293 294 294 295 296 297 298 299 299 300 301 302 303 303 303 303 303 304 304 304 305 306 307 309 310 311 311 312 314 316 318 317 315 314 315 319 323 327 331 334 337 339 339 339 338 339 341 343 344 343
237 242 246 251 257 261 265 269 273 276 280 283 286 288 290 291 292 292 293 293 294 294 295 296 297 298 298 299 300 301 302 302 302 303 303 303 304 304 304 305 305 306 307 309 309 310 310 311 313 316 316 313 311 311 314 317 321 324 329 333 337 338 339 339 340 342 343 343 342
235 239 244 249 255 260 265 269 274 278 282 285 288 289 290 291 292 292 293 293 294 294 295 296 297 297 298 298 299 300 301 301 302 303 303 304 304 304 304 304 305 305 306 307 308 308 308 309 311 313 314 311 308 306 308 311 314 318 323 328 331 335 337 339 341 342 342 342 341
233 237 242 247 253 258 263 268 274 279 283 286 288 289 290 291 292 292 292 292 294 295 295 295 295 296 296 297 298 299 300 302 302 303 304 305 305 304 304 304 304 305 305 306 307 307 308 308 309 311 311 308 303 300 302 306 309 313 317 322 325 328 332 336 339 340 341 341 339
231 236 241 246 252 257 262 268 274 280 284 286 287 288 289 291 291 291 292 293 294 294 294 294 294 294 294 295 297 298 301 302 303 303 303 304 304 304 304 304 304 304 304 305 306 307 308 308 309 310 309 306 298 294 295 300 306 310 314 317 318 320 325 330 334 336 337 337 335
230 234 239 245 250 256 262 269 275 279 283 284 286 288 289 291 291 292 292 293 294 294 294 293 293 293 294 295 297 299 301 302 302 302 302 302 303 303 304 304 304 304 304 305 306 306 307 309 310 311 309 304 296 289 288 295 302 307 311 312 312 313 316 321 326 330 332 332 331
228 232 237 243 249 255 262 269 274 278 281 284 287 289 290 291 293 294 294 294 294 294 294 294 294 295 295 297 298 299 300 300 300 300 300 301 301 302 304 304 304 304 304 305 306 306 307 308 309 310 308 303 296 288 285 290 297 303 307 308 307 307 308 312 317 321 325 326 326
226 230 234 240 247 253 260 267 272 277 281 285 288 290 292 293 295 295 296 296 295 295 296 296 297 297 298 298 299 299 298 298 298 298 298 299 300 302 303 304 304 304 304 305 305 305 305 306 307 308 307 304 300 295 291 290 293 297 301 303 303 302 303 305 309 312 316 319 321
225 229 233 239 245 252 259 265 272 279 284 289 292 293 294 295 296 297 297 297 298 298 298 298 298 298 298 298 298 297 297 296 296 296 297 298 300 301 303 303 303 303 304 304 304 303 304 304 306 308 308 307 305 303 301 298 295 294 295 297 298 299 299 300 302 304 306 310 314
225 229 234 240 246 252 259 266 274 282 288 293 295 296 296 296 297 298 298 299 300 301 301 300 299 298 298 297 296 296 295 295 294 295 296 298 299 301 302 302 302 303 303 303 303 302 303 304 306 308 309 309 307 306 306 305 301 297 294 294 296 297 297 297 297 298 299 302 306
227 231 236 242 247 254 261 269 279 286 291 294 296 296 297 297 297 298 299 300 302 303 303 302 300 299 298 297 296 295 294 294 294 295 296 297 299 300 301 301 301 302 302 302 302 303 303 304 305 307 308 309 308 308 307 307 305 301 297 295 296 297 296 295 294 293 294 295 298
229 233 237 242 247 253 262 272 280 286 291 294 296 296 296 296 296 297 299 301 303 305 304 303 302 301 299 297 295 294 294 294 295 296 296 298 298 299 300 300 301 301 302 302 302 303 303 304 304 305 306 307 308 308 307 306 305 303 300 298 298 298 297 295 293 291 290 290 292
228 231 235 240 246 253 262 271 279 285 290 293 294 294 294 293 294 296 299 302 304 305 304 304 304 301 299 296 295 295 295 295 296 297 297 298 298 299 299 300 301 301 301 301 302 303 303 303 303 303 304 305 306 306 306 305 304 303 301 299 298 297 296 295 293 291 289 287 287
225 229 233 239 246 253 262 270 278 284 288 290 292 291 291 291 292 294 298 300 302 304 304 304 303 301 298 297 297 297 297 297 298 298 299 299 299 299 300 300 301 301 301 302 303 303 304 303 303 303 304 304 305 305 305 304 304 302 299 297 297 296 295 294 293 291 288 286 284
224 228 233 240 246 253 260 268 276 281 285 287 288 288 288 288 290 292 295 298 300 302 304 303 302 300 300 300 299 299 299 299 299 299 299 299 299 300 300 300 301 302 302 302 303 304 304 304 304 305 305 305 305 305 305 305 304 302 300 298 296 295 294 293 291 289 287 285 282
225 229 234 240 246 252 259 266 273 278 281 283 284 285 285 286 288 290 293 296 298 300 301 301 301 301 301 302 301 301 301 300 300 300 300 300 300 300 301 301 301 302 303 303 304 304 305 306 306 306 307 307 307 306 306 306 305 303 301 299 297 295 293 291 289 287 285 283 280
226 229 234 239 245 251 257 264 270 275 278 280 281 282 283 285 287 289 292 294 296 298 298 299 299 300 300 301 302 302 302 302 302 302 301 301 301 301 302 302 302 303 304 305 305 306 306 307 308 308 308 308 308 308 308 307 305 303 300 297 295 293 290 288 286 284 283 282 280
225 229 233 238 244 250 256 262 267 272 275 277 277 278 280 282 285 287 290 293 295 295 296 296 297 298 299 301 301 302 302 303 303 303 303 303 303 303 303 303 303 304 305 305 306 307 308 308 309 309 309 310 310 309 308 307 304 301 298 295 293 290 288 286 284 283 282 281 280
225 228 232 237 242 248 254 260 264 268 271 272 274 275 277 279 282 286 289 292 293 293 293 294 295 297 298 300 301 302 302 303 304 304 305 305 305 305 304 303 304 306 306 306 306 307 309 309 309 310 310 310 310 309 307 305 302 299 296 293 291 289 287 286 284 284 283 281 280
224 227 232 236 241 246 252 256 261 264 266 268 270 272 275 278 282 285 289 291 292 292 292 293 294 296 298 299 301 301 302 302 303 304 305 306 305 305 304 304 305 307 307 307 307 308 309 309 310 310 310 310 309 307 305 302 300 296 294 292 290 289 288 288 287 286 284 283 281
224 227 231 235 240 244 248 252 255 258 260 263 266 270 274 278 282 285 288 290 290 291 291 292 294 295 297 299 300 301 301 302 302 303 303 304 304 304 304 304 306 307 308 308 308 308 309 309 310 310 310 309 308 306 303 300 297 295 292 290 290 290 291 291 291 289 287 285 283
225 227 231 234 238 241 244 246 250 253 257 261 265 269 273 277 281 284 286 287 288 289 290 292 293 294 296 298 300 301 301 301 301 301 301 302 302 303 303 304 305 307 308 308 308 308 309 309 309 309 309 308 306 304 302 299 295 292 290 289 289 291 293 296 296 295 292 290 288
225 227 230 233 235 238 241 244 247 251 256 261 266 270 273 276 279 281 284 285 286 288 289 290 292 294 296 298 299 299 300 300 300 301 300 301 302 302 302 302 303 305 307 308 308 308 308 308 308 308 308 308 306 304 301 297 293 290 289 289 290 293 298 302 304 304 303 301 300
225 227 228 231 233 236 239 243 247 252 257 261 265 268 271 274 277 280 282 284 285 286 288 289 291 293 295 297 297 298 299 300 300 301 301 301 301 301 301 301 302 305 307 308 308 307 307 308 308 309 309 308 307 304 301 296 293 291 292 293 296 300 307 313 315 316 317 321 324
225 225 226 229 232 234 238 242 247 251 256 259 262 265 269 273 276 278 281 283 284 286 287 289 291 293 294 296 296 297 298 299 300 301 302 302 302 302 302 302 304 306 307 309 308 308 308 309 310 310 310 310 309 307 304 301 298 299 302 307 312 316 319 321 324 330 338 346 347